Weather History for Oscoda, MI

Change the Weather History Date:

Sunday, September 22, 2013

  Actual Average Record
Temperature  
Mean Temperature 45 °F -  
Max Temperature 52 °F 65 °F 84 °F (2004)
Min Temperature 38 °F 46 °F 33 °F (1999)
Degree Days  
Heating Degree Days 20    
Moisture  
Dew Point 39 °F    
Average Humidity 79    
Maximum Humidity 96    
Minimum Humidity 58    
Precipitation  
Precipitation 0.00 in - - ()
Sea Level Pressure  
Sea Level Pressure 30.00 in    
Wind  
Wind Speed 7 mph (NW)    
Max Wind Speed 14 mph    
Max Gust Speed 17 mph    
Visibility 10 miles    
Events      
Averages and records for this station are not official NWS values.
T = Trace of Precipitation, MM = Missing Value Source: NWS Daily Summary

Daily Weather History Graph

Daily Weather History Graph

Search for Another Location

Airport:

Trip Planner

Search our weather history database for the weather conditions in past years. The results will help you decide how hot, cold, wet, or windy it might be!

Date:

Astronomy

Sep. 22, 2013 Rise Set
Actual Time 7:21 AM EDT 7:30 PM EDT
Civil Twilight 6:51 AM EDT 7:59 PM EDT
Nautical Twilight 6:17 AM EDT 8:33 PM EDT
Astronomical Twilight 5:42 AM EDT 9:08 PM EDT
Moon 9:10 PM EDT (9/22) 10:49 AM EDT (9/22)
Length of Visible Light 13h 07m
Length of Day
12h 09m
Waning Gibbous, 89% of the Moon is Illuminated
Sep 22
Waning Gibbous
Sep 26
Last Quarter
Oct 4
New
Oct 11
First Quarter
Oct 18
Full

Hourly Weather History & Observations

Time (EDT) Temp. Windchill Dew Point Humidity Pressure Visibility Wind Dir Wind Speed Gust Speed Precip Events Conditions
12:13 AM 47.1 °F - 42.4 °F 84% 29.87 in 10.0 mi NW 8.1 mph - N/A   Mostly Cloudy
12:34 AM 45.5 °F 41.8 °F 42.1 °F 88% 29.88 in 10.0 mi WNW 6.9 mph - N/A   Scattered Clouds
12:53 AM 45.1 °F 41.4 °F 41.9 °F 88% 29.88 in 10.0 mi WNW 6.9 mph - N/A   Clear
1:13 AM 44.1 °F 41.5 °F 41.2 °F 90% 29.89 in 10.0 mi WNW 4.6 mph - N/A   Clear
1:34 AM 43.2 °F 39.7 °F 40.8 °F 91% 29.89 in 10.0 mi WNW 5.8 mph - N/A   Clear
1:53 AM 42.8 °F 40.1 °F 40.5 °F 91% 29.89 in 10.0 mi WNW 4.6 mph - N/A   Clear
2:13 AM 42.1 °F 37.7 °F 40.1 °F 93% 29.89 in 10.0 mi WNW 6.9 mph - N/A   Clear
2:34 AM 42.1 °F 36.6 °F 40.1 °F 93% 29.89 in 10.0 mi WNW 9.2 mph - N/A   Clear
2:53 AM 42.3 °F 37.3 °F 40.3 °F 93% 29.90 in 10.0 mi WNW 8.1 mph - N/A   Clear
3:14 AM 42.6 °F 37.8 °F 40.3 °F 91% 29.90 in 10.0 mi WNW 8.1 mph - N/A   Clear
3:34 AM 42.3 °F 38.6 °F 40.1 °F 92% 29.90 in 10.0 mi WNW 5.8 mph - N/A   Clear
3:53 AM 41.9 °F 37.5 °F 39.9 °F 93% 29.90 in 10.0 mi NW 6.9 mph - N/A   Clear
4:14 AM 41.9 °F 38.2 °F 39.7 °F 92% 29.91 in 10.0 mi WNW 5.8 mph - N/A   Clear
4:34 AM 41.0 °F 38.0 °F 39.2 °F 93% 29.91 in 10.0 mi WNW 4.6 mph - N/A   Clear
4:53 AM 40.1 °F 38.0 °F 38.5 °F 94% 29.92 in 10.0 mi WNW 3.5 mph - N/A   Clear
5:14 AM 39.6 °F 36.3 °F 38.3 °F 95% 29.92 in 10.0 mi WNW 4.6 mph - N/A   Clear
5:34 AM 39.6 °F 37.4 °F 38.1 °F 95% 29.93 in 10.0 mi WNW 3.5 mph - N/A   Scattered Clouds
5:53 AM 38.7 °F 35.2 °F 37.6 °F 96% 29.94 in 10.0 mi WNW 4.6 mph - N/A   Scattered Clouds
6:14 AM 39.2 °F 35.0 °F 37.9 °F 95% 29.93 in 10.0 mi WNW 5.8 mph - N/A   Clear
6:34 AM 39.6 °F 35.4 °F 38.5 °F 96% 29.94 in 10.0 mi WNW 5.8 mph - N/A   Clear
6:53 AM 40.6 °F 35.4 °F 39.6 °F 96% 29.94 in 10.0 mi NW 8.1 mph - N/A   Clear
7:14 AM 41.4 °F 35.2 °F 40.1 °F 95% 29.95 in 10.0 mi NW 10.4 mph - N/A   Clear
7:34 AM 41.9 °F 35.0 °F 40.3 °F 94% 29.96 in 10.0 mi NW 12.7 mph - N/A   Clear
7:53 AM 42.6 °F 36.8 °F 40.5 °F 92% 29.98 in 10.0 mi NW 10.4 mph - N/A   Clear
8:14 AM 43.5 °F 38.3 °F 41.0 °F 91% 29.98 in 10.0 mi NW 9.2 mph - N/A   Scattered Clouds
8:34 AM 43.2 °F 37.4 °F 40.5 °F 90% 29.98 in 10.0 mi NW 10.4 mph - N/A   Clear
8:53 AM 44.6 °F 39.2 °F 40.8 °F 87% 29.99 in 10.0 mi NW 10.4 mph - N/A   Clear
9:14 AM 45.9 °F 40.8 °F 40.6 °F 82% 29.99 in 10.0 mi NNW 10.4 mph - N/A   Clear
9:34 AM 47.7 °F - 41.4 °F 79% 30.00 in 10.0 mi NNW 9.2 mph - N/A   Clear
9:53 AM 48.9 °F - 41.0 °F 74% 30.01 in 10.0 mi NW 12.7 mph - N/A   Clear
10:14 AM 49.8 °F - 40.3 °F 70% 30.01 in 10.0 mi NNW 10.4 mph - N/A   Clear
10:34 AM 50.9 °F - 38.8 °F 63% 30.02 in 10.0 mi North 11.5 mph 17.3 mph N/A   Scattered Clouds
10:53 AM 52.0 °F - 38.5 °F 60% 30.03 in 10.0 mi North 9.2 mph - N/A   Scattered Clouds
11:14 AM 50.4 °F - 37.2 °F 61% 30.03 in 10.0 mi North 12.7 mph - N/A   Mostly Cloudy
11:33 AM 50.0 °F - 37.0 °F 61% 30.04 in 10.0 mi North 10.4 mph 17.3 mph N/A   Overcast
11:53 AM 50.2 °F - 37.4 °F 62% 30.04 in 10.0 mi NNW 13.8 mph - N/A   Overcast
12:14 PM 50.5 °F - 38.3 °F 63% 30.05 in 10.0 mi NNW 9.2 mph - N/A   Overcast
12:33 PM 50.9 °F - 38.1 °F 62% 30.05 in 10.0 mi NNW 9.2 mph - N/A   Overcast
12:53 PM 51.1 °F - 38.1 °F 61% 30.05 in 10.0 mi NNW 10.4 mph - N/A   Overcast
1:14 PM 50.9 °F - 37.9 °F 61% 30.05 in 10.0 mi NNW 6.9 mph - N/A   Overcast
1:33 PM 50.9 °F - 37.9 °F 61% 30.05 in 10.0 mi NW 6.9 mph - N/A   Overcast
1:53 PM 52.0 °F - 38.1 °F 59% 30.05 in 10.0 mi North 6.9 mph - N/A   Overcast
2:14 PM 52.3 °F - 37.8 °F 58% 30.04 in 10.0 mi NNE 8.1 mph - N/A   Overcast
2:33 PM 51.3 °F - 37.9 °F 60% 30.04 in 10.0 mi NNW 6.9 mph - N/A   Overcast
2:53 PM 51.8 °F - 38.1 °F 60% 30.04 in 10.0 mi NNW 10.4 mph - N/A   Overcast
3:14 PM 51.6 °F - 37.8 °F 59% 30.04 in 10.0 mi NNW 4.6 mph - N/A   Overcast
3:33 PM 51.8 °F - 37.9 °F 59% 30.04 in 10.0 mi North 3.5 mph - N/A   Overcast
3:53 PM 51.6 °F - 37.9 °F 60% 30.04 in 10.0 mi North 5.8 mph - N/A   Overcast
4:14 PM 51.6 °F - 37.6 °F 59% 30.04 in 10.0 mi Calm Calm - N/A   Overcast
4:33 PM 52.0 °F - 38.5 °F 60% 30.04 in 10.0 mi NNE 5.8 mph - N/A   Overcast
4:54 PM 51.8 °F - 39.9 °F 64% 30.05 in 10.0 mi NNE 8.1 mph - N/A   Overcast
5:14 PM 51.8 °F - 40.3 °F 65% 30.04 in 10.0 mi NE 6.9 mph - N/A   Overcast
5:33 PM 51.4 °F - 40.3 °F 66% 30.04 in 10.0 mi NNE 6.9 mph - N/A   Overcast
5:54 PM 51.1 °F - 40.3 °F 67% 30.05 in 10.0 mi NE 6.9 mph - N/A   Overcast
6:14 PM 51.3 °F - 40.1 °F 66% 30.05 in 10.0 mi NE 5.8 mph - N/A   Overcast
6:33 PM 50.9 °F - 40.1 °F 67% 30.05 in 10.0 mi NNE 4.6 mph - N/A   Overcast
6:54 PM 50.5 °F - 39.9 °F 67% 30.06 in 10.0 mi NNE 5.8 mph - N/A   Overcast
7:14 PM 50.4 °F - 39.9 °F 67% 30.06 in 10.0 mi NNE 4.6 mph - N/A   Overcast
7:33 PM 50.2 °F - 40.5 °F 69% 30.06 in 10.0 mi Calm Calm - N/A   Overcast
7:54 PM 50.0 °F - 41.5 °F 73% 30.06 in 10.0 mi Calm Calm - N/A   Overcast
8:14 PM 49.6 °F - 41.7 °F 74% 30.07 in 10.0 mi Calm Calm - N/A   Overcast
8:33 PM 48.2 °F - 40.5 °F 75% 30.07 in 10.0 mi NNE 4.6 mph - N/A   Overcast
8:54 PM 46.4 °F 45.2 °F 41.9 °F 84% 30.07 in 10.0 mi NW 3.5 mph - N/A   Overcast
9:14 PM 45.9 °F - 41.0 °F 83% 30.08 in 10.0 mi Calm Calm - N/A   Scattered Clouds
9:33 PM 43.9 °F - 40.3 °F 87% 30.09 in 10.0 mi Calm Calm - N/A   Clear
9:54 PM 42.8 °F - 40.3 °F 91% 30.09 in 10.0 mi Calm Calm - N/A   Clear
10:14 PM 40.3 °F 38.2 °F 38.5 °F 93% 30.10 in 10.0 mi WSW 3.5 mph - N/A   Clear
10:33 PM 39.4 °F - 37.4 °F 93% 30.10 in 10.0 mi Calm Calm - N/A   Clear
10:54 PM 38.3 °F - 36.0 °F 91% 30.10 in 10.0 mi Calm Calm - N/A   Clear
11:14 PM 38.1 °F 35.7 °F 36.1 °F 93% 30.10 in 10.0 mi West 3.5 mph - N/A   Scattered Clouds
11:33 PM 39.0 °F 36.8 °F 37.6 °F 95% 30.11 in 10.0 mi WSW 3.5 mph - N/A   Mostly Cloudy
11:54 PM 41.0 °F - 39.2 °F 93% 30.11 in 10.0 mi Calm Calm - N/A   Overcast